Lid_Strength_Index
3 4 4 5 3 2 1 2 2 2 1 0 1 1 1 2 3 4 4 4 5 6
4 4 4 3 2 3 2 3 1 2 1 1 2 2 1 2 3 4 5 6 6 7
3 3 4 5 4 3 2 2 2 2 1 2 2 2 2 3 3 4 5 6 7 7
3 3 4 5 4 4 4 3 3 2 1 2 3 3 3 3 4 5 6 6 7 7
3 3 5 5 5 4 4 4 4 3 3 3 3 3 4 4 5 6 6 7 7 7
5 4 5 5 5 4 4 4 4 4 4 4 4 4 4 5 6 7 7 6 7 7
5 5 6 6 6 5 4 5 5 5 5 5 5 5 6 6 7 7 7 7 7 7
6 6 7 7 7 7 7 6 5 5 6 5 5 6 6 6 7 7 7 7 7 7
7 7 8 8 8 8 8 7 7 6 6 6 5 5 5 6 8 8 9 9 7 6
7 7 8 8 8 8 8 8 8 7 6 6 5 4 5 7 9 9 9 9 9 9
7 8 8 8 8 9 8 9 8 8 7 7 6 6 6 8 10 11 10 10 10 10
7 8 8 9 9 10 10 9 9 8 8 7 7 5 6 9 10 11 12 11 10 10
7 8 9 11 12 12 12 12 10 11 10 7 9 6 7 10 11 13 12 12 11 7
8 9 11 13 13 13 13 13 13 13 13 11 10 9 7 8 12 12 13 13 12 10